Addison, TX

1:39 PM CST on February 06, 2016 (GMT -0600)
Addison

Weather History for KADS - January, 2014

Change the Weather History Date:

Sunday, January 26, 2014

  Actual Average Record
Temperature  
Mean Temperature 60 °F -  
Max Temperature 71 °F 55 °F 73 °F (1999)
Min Temperature 48 °F 38 °F 24 °F (2009)
Degree Days  
Heating Degree Days 6    
Growing Degree Days 10 (Base 50)    
Moisture  
Dew Point 33 °F    
Average Humidity 43    
Maximum Humidity 59    
Minimum Humidity 22    
Precipitation  
Precipitation 0.00 in - - ()
Sea Level Pressure  
Sea Level Pressure 29.83 in    
Wind  
Wind Speed 4 mph (SE)    
Max Wind Speed 13 mph    
Max Gust Speed 18 mph    
Visibility 12 miles    
Events      
Averages and records for this station are not official NWS values.
T = Trace of Precipitation, MM = Missing Value Source: NWS Daily Summary

Daily Weather History Graph

Daily Weather History Graph

Search for Another Location

Airport or City:

Trip Planner

Search our weather history database for the weather conditions in past years. The results will help you decide how hot, cold, wet, or windy it might be!

Date:

Astronomy

Jan. 26, 2014 Rise Set
Actual Time 7:26 AM CST 5:54 PM CST
Civil Twilight 6:59 AM CST 6:20 PM CST
Nautical Twilight 6:30 AM CST 6:50 PM CST
Astronomical Twilight 6:00 AM CST 7:19 PM CST
Moon 3:03 AM CST (1/26) 1:46 PM CST (1/26)
Length of Visible Light 11h 20m
Length of Day
10h 27m
Waning Crescent, 23% of the Moon is Illuminated
Jan 26
Waning Crescent
Jan 30
New
Feb 6
First Quarter
Feb 14
Full
Feb 22
Last Quarter

Hourly Weather History & Observations

Time (CST) Temp. Dew Point Humidity Pressure Visibility Wind Dir Wind Speed Gust Speed Precip Events Conditions
12:15 AM 50.7 °F 31.8 °F 48% 29.98 in 10.0 mi South 3.5 mph - N/A   Clear
12:35 AM 50.2 °F 31.5 °F 49% 29.97 in 10.0 mi Calm Calm - N/A   Clear
12:55 AM 50.2 °F 31.5 °F 49% 29.97 in 10.0 mi Calm Calm - N/A   Clear
1:15 AM 49.6 °F 32.0 °F 51% 29.96 in 10.0 mi Calm Calm - N/A   Clear
1:35 AM 51.8 °F 31.1 °F 45% 29.95 in 10.0 mi Calm Calm - N/A   Clear
1:55 AM 48.4 °F 32.0 °F 53% 29.94 in 10.0 mi Calm Calm - N/A   Clear
2:15 AM 50.9 °F 30.9 °F 46% 29.94 in 10.0 mi Calm Calm - N/A   Clear
2:35 AM 52.7 °F 30.7 °F 43% 29.94 in 10.0 mi SSW 4.6 mph - N/A   Clear
2:55 AM 53.4 °F 30.9 °F 42% 29.94 in 10.0 mi SSW 4.6 mph - N/A   Clear
3:15 AM 52.7 °F 31.1 °F 44% 29.94 in 10.0 mi South 5.8 mph - N/A   Clear
3:35 AM 52.9 °F 31.3 °F 44% 29.94 in 10.0 mi SSW 5.8 mph - N/A   Clear
3:55 AM 53.4 °F 31.5 °F 43% 29.93 in 10.0 mi South 8.1 mph - N/A   Clear
4:15 AM 54.1 °F 31.5 °F 42% 29.91 in 10.0 mi South 6.9 mph - N/A   Clear
4:35 AM 52.2 °F 32.0 °F 46% 29.91 in 10.0 mi SE 3.5 mph - N/A   Clear
4:55 AM 51.4 °F 31.1 °F 46% 29.90 in 10.0 mi ESE 4.6 mph - N/A   Clear
5:47 AM 48.2 °F 32.0 °F 54% 29.88 in 13.0 mi SSE 9.2 mph - N/A   Overcast
6:47 AM 53.6 °F 28.4 °F 38% 29.87 in 13.0 mi South 6.9 mph - N/A   Mostly Cloudy
7:54 AM 51.8 °F 32.0 °F 47% 29.85 in 13.0 mi SE 10.4 mph - N/A   Mostly Cloudy
8:47 AM 53.6 °F 32.0 °F 44% 29.84 in 13.0 mi SE 6.9 mph - N/A   Mostly Cloudy
9:47 AM 55.4 °F 33.8 °F 44% 29.81 in 13.0 mi SSE 11.5 mph 17.3 mph N/A   Mostly Cloudy
10:47 AM 60.8 °F 30.2 °F 31% 29.80 in 13.0 mi SSE 10.4 mph - N/A   Mostly Cloudy
11:47 AM 66.2 °F 32.0 °F 28% 29.77 in 10.0 mi South 10.4 mph - N/A   Mostly Cloudy
12:47 PM 66.2 °F 30.2 °F 26% 29.73 in 13.0 mi South 12.7 mph 18.4 mph N/A   Scattered Clouds
1:51 PM 66.2 °F 32.0 °F 28% 29.69 in 15.0 mi South 11.5 mph 18.4 mph N/A   Scattered Clouds
2:47 PM 68.0 °F 33.8 °F 28% 29.66 in 20.0 mi SE 9.2 mph 15.0 mph N/A   Mostly Cloudy
3:59 PM 69.8 °F 33.8 °F 27% 29.65 in 20.0 mi East 4.6 mph - N/A   Scattered Clouds
4:47 PM 71.6 °F 30.2 °F 22% 29.65 in 20.0 mi South 5.8 mph - N/A   Partly Cloudy
5:47 PM 66.2 °F 32.0 °F 28% 29.66 in 13.0 mi SE 6.9 mph - N/A   Partly Cloudy
6:47 PM 64.4 °F 33.8 °F 32% 29.67 in 15.0 mi ESE 8.1 mph - N/A   Clear
7:58 PM 59.0 °F 35.6 °F 42% 29.71 in 15.0 mi SE 5.8 mph - N/A   Clear
9:15 PM 59.7 °F 36.5 °F 42% 29.75 in 10.0 mi Calm Calm - N/A   Clear
9:35 PM 54.3 °F 36.7 °F 51% 29.76 in 10.0 mi Calm Calm - N/A   Clear
9:47 PM 55.4 °F 28.4 °F 36% 29.76 in 13.0 mi ENE 4.6 mph - N/A   Clear
9:55 PM 53.2 °F 36.7 °F 53% 29.76 in 10.0 mi Calm Calm - N/A   Clear
10:15 PM 55.9 °F 37.2 °F 49% 29.77 in 10.0 mi ENE 5.8 mph - N/A   Clear
10:35 PM 52.2 °F 36.7 °F 56% 29.78 in 10.0 mi NE 3.5 mph - N/A   Clear
10:55 PM 52.9 °F 37.2 °F 55% 29.79 in 10.0 mi NE 3.5 mph - N/A   Clear
11:15 PM 52.2 °F 37.0 °F 56% 29.78 in 10.0 mi NE 4.6 mph - N/A   Clear
11:35 PM 50.2 °F 36.5 °F 59% 29.79 in 10.0 mi NNE 3.5 mph - N/A   Clear
11:55 PM 50.4 °F 36.7 °F 59% 29.79 in 10.0 mi North 3.5 mph - N/A   Clear